sat.trackr.live / text

‹ back to catalog

STARLINK-3154

NORAD 49417 · 2021-104K

PAYLOAD ACTIVE UNKNOWN

§ Identity

Operator
Country
US
Launch date
2021-11-13
Launch site
AFETR
Launch vehicle
Mass (kg)
RCS (m²)

Purposes: comms

External: N2YO · Heavens-Above · Gunter

§ Orbital elements

Epoch: 2026-05-24T23:27:10.640736Z

Period
95.44 min
Inclination
53.2157°
Eccentricity
0.0001102
Mean motion
15.08837467 rev/d
Perigee alt
539.0 km
Apogee alt
540.5 km
Semi-major
6,917.9 km
B*
2.7263e-5
RAAN
236.3043°
Arg perigee
84.3208°
Mean anomaly
275.7910°
Rev number
25,028

§ Raw data

STARLINK-31541 49417U 21104K   26144.97720649  .00000146  00000+0  27263-4 0  99982 49417  53.2157 236.3043 0001102  84.3208 275.7910 15.08837467250287

JSON: /api/v1/satellites/49417 · /tle

For live sub-satellite position, see the globe view (requires WebGL).

§ Visibility from observer

Set your observer location to see the next 7 days of passes ≥ 10°. The values pass through the URL so the page stays shareable.

No JS? Fill the form by hand. The geolocation button needs JavaScript.